Location: Tel Aviv
(32.0670°N, 34.7670°E)
Time: 02:47:58
(UTC+03:00)

Tiros 1 - Pass Details

Date: 27 January 2022
Orbit: 629 x 663 km, 48.4° (Epoch: 26 May)

Event Time Altitude Azimuth Distance (km) Brightness Sun altitude
Rises 01:38:25 0° 317° (NW) 2,989 - -62.8°
Reaches altitude 10° 01:42:04 10° 345° (NNW) 2,070 - -62.1°
Maximum altitude 01:44:17 13° 13° (NNE) 1,867 - -61.7°
Drops below altitude 10° 01:46:30 10° 41° (NE) 2,060 - -61.2°
Sets 01:50:07 0° 69° (ENE) 2,961 - -60.5°
